Tracking 19638 objects as of 20-May-2019
HD Live streaming from Space Station
objects crossing your sky now

AMC-2 (GE-2)

Track AMC-2 (GE-2) now!
AMC-2 (GE-2) is classified as:


NORAD ID: 24713
Int'l Code: 1997-002A
Perigee: 35,767.5 km
Apogee: 35,820.7 km
Inclination: 5.6 °
Period: 1,436.1 minutes
Semi major axis: 42165 km
RCS: 28.4382 m2 (large)
Launch date: January 30, 1997
Source: SOCIETE EUROPEENNE DES SATELLITES (SES)
Launch site: FRENCH GUIANA (FRGUI)

Broadcasting, business, cable; CONUS, Hawaii, Caribbean, southern Canada; 24 Ku- and 24 C-band
aabbcc
Your satellite tracking list
Your tracking list is empty




NASA's NSSDC Master Catalog

Two Line Element Set (TLE):
1 24713U 97002A   19139.38956043 -.00000223  00000-0  00000+0 0  9993
2 24713   5.6326  62.4143 0006309   1.0861 228.6541  1.00270363 32392
Source of the keplerian elements: AFSPC